Regional Weather Roundup
Issued by NWS Newport/Morehead, NC

Current Version | Previous Version | Graphics & Text | Print | Product List | Glossary On
Versions: 1 2 3 4 5 6 7 8 9 10 11 12 13 14 15 16 17 18 19 20 21 22 23 24 25 26 27 28 29 30 31 32 33 34 35 36 37 38 39 40 41 42 43 44 45 46 47 48 49 50
595 ASUS42 KMHX 232113 RWRMHX WEATHER ROUNDUP FOR EASTERN NORTH CAROLINA NATIONAL WEATHER SERVICE NEWPORT/MOREHEAD CITY NC 500 PM EDT FRI JUN 23 2017 NOTE: "FAIR" INDICATES FEW OR NO CLOUDS BELOW 12,000 FEET WITH NO SIGNIFICANT WEATHER AND/OR OBSTRUCTIONS TO VISIBILITY NCZ015>017-031-032-045>047-102-103-232200- NORTH COAST CITY SKY/WX TMP DP RH WIND PRES REMARKS EDENTON MOSUNNY 91 75 60 SW14G20 29.89F HX 101 ELIZABETH CITY SUNNY 89 77 67 SW18 29.87F HX 101 KITTY HAWK CLEAR 87 75 66 CALM 29.88F MANTEO MOSUNNY 86 77 73 SW18 29.90F $$ NCZ045>047-081-094-103-104-232200- CENTRAL COAST CITY SKY/WX TMP DP RH WIND PRES REMARKS FRISCO SUNNY 83 75 77 SW15G23 29.95F $$ NCZ095-097-098-100-101-232200- SOUTHERN COAST CITY SKY/WX TMP DP RH WIND PRES REMARKS BEAUFORT MOSUNNY 84 78 82 SW23G31 29.95F CEDAR ISLAND NOT AVBL JACKSONVILLE SUNNY 88 79 74 S12G21 29.93F HX 103 PINEY ISLAND PTCLDY N/A N/A N/A SW18G28 29.94F WILMINGTON MOSUNNY 88 76 67 S15 29.95F $$ NCZ011>013-027>030-043-044-078>080-089-090>093-098-232200- COASTAL PLAIN CITY SKY/WX TMP DP RH WIND PRES REMARKS AHOSKIE N/A 87 74 66 S7 29.87F CLINTON SUNNY 91 74 58 SW10 29.93F HX 100 ELIZABETHTOWN NOT AVBL GOLDSBORO MOSUNNY 91 74 57 SW17G23 29.89F HX 100 GREENVILLE MOSUNNY 91 73 55 SW10G23 29.92F HX 100 HAVELOCK MOSUNNY 86 75 69 S17G25 29.95F KENANSVILLE MOSUNNY 90 73 58 SW14 29.92F KINSTON MOSUNNY 91 72 52 S12G21 29.91F NEW BERN MOSUNNY 89 78 70 SW8 29.93F HX 103 RICHLANDS PTSUNNY 90 77 65 S13 29.93F HX 103 ROCKY MOUNT MOSUNNY 89 74 60 SW16G23 29.88F WASHINGTON MOSUNNY N/A N/A N/A SW14 29.90F WHITEVILLE MOSUNNY 89 77 67 S8G17 29.94F HX 101 $$ AMZ130-135-150-152-154-156-158-170-250-252-270-ANZ085-086-088-633-658-670-232200- MARINE OBSERVATIONS STATION/POSITION TIME TEMP WIND PRES WAVE SWELL AIR SEA DIR/SP/G HT/PER HT/PER (UTC) (F) (DEG/KT/KT) (MB) (FT/S) (FT/S) CHESAPEAKE LIGHT NOT AVBL 64 E VA BEACH 2050 75 73 200/ 17/ 19 1012.0 3/ 4 2/ 8 DUCK 2042 85 64 200/ 14/ 19 1011.4 2 E DUCK NOT AVBL OREGON INLET 2042 81 82 190/ 23/ 27 1012.7 13E OREGON INLT 2048 72 N/A 3/ 8 2/ 8 HATTERAS CG 2042 82 79 220/ 12/ 20 1014.0 DIAMOND BUOY 2050 81 81 220/ 19/ 25 1014.1 4/ 4 2/ 9 CAPE LOOKOUT 2100 82 220/ 15/ 20 1014.1 BEAUFORT LAB 2042 82 79 210/ 14/ 20 1013.8 30 SE NEW RVR IN 2008 80 81 230/ 17/ 25 1015.4 30 SE NEW RVR IN 2043 81 N/A 5/ 5 27 SE WRIGHTSVLE 2008 80 80 220/ 17/ 21 1015.6 5 SE WRIGHTSVLE 2008 81 80 210/ 14/ 21 1015.2 225 S CAPE HAT 2050 81 82 200/ 12/ 14 1018.3 4/ 9 3/ 9 41 SE CHARLESTON 2050 81 81 210/ 16/ 19 1015.6 4/ 8 2/ 8 $$

USA.gov is the U.S. government's official web portal to all federal, state and local government web resources and services.